Location: Novara
(45.4670°N, 8.6330°E)
Time: 03:37:43
(UTC+01:00)

ISS - Visible Passes

Search period start: 21 February 2019 00:00
Search period end: 03 March 2019 00:00
Orbit: 403 x 411 km, 51.6° (Epoch: 21 February)

Date Brightness Start Highest point End Pass type
(mag) Time Alt. Az. Time Alt. Az. Time Alt. Az.
21 Feb -0.6 06:40:47 10° SSE 06:42:17 13° SE 06:43:47 10° ESE visible
23 Feb -1.7 06:32:50 10° SSW 06:35:40 27° SE 06:38:30 10° E visible
24 Feb -1.0 05:42:18 10° S 05:44:25 16° SE 05:46:32 10° E visible
25 Feb -3.4 06:25:55 10° SW 06:29:09 61° SSE 06:32:23 10° ENE visible
26 Feb -2.5 05:36:05 20° SSW 05:37:46 35° SE 05:40:48 10° ENE visible
27 Feb -1.4 04:47:00 20° ESE 04:47:00 20° ESE 04:48:58 10° E visible
27 Feb -3.8 06:19:44 12° WSW 06:22:43 66° NNW 06:25:58 10° ENE visible
28 Feb -3.8 05:30:30 51° SW 05:31:13 78° SSE 05:34:30 10° ENE visible
01 Mar -1.7 04:41:11 27° E 04:41:11 27° E 04:42:55 10° ENE visible
01 Mar -3.1 06:13:53 14° W 06:16:21 39° NNW 06:19:28 10° NE visible
02 Mar -3.6 05:24:28 52° NW 05:24:45 54° NNW 05:27:59 10° NE visible
